EW3967 Weather Reports


Display with metric or nautical units.
time (UTC)temp
F
wind
direction
speed
MPH
gust
MPH
rain 1hr
in
rain 24hr
in
rain mn
in
humidity
%
barometer
mb
20260903084547 79 142 4.0 9.0 0.00 0.00 0.00 70 1010.7
20260903083040 79 149 5.0 10.0 0.00 0.00 0.00 70 1010.7
20260903081539 80 181 3.0 7.0 0.00 0.00 0.00 69 1010.8
20260903080041 80 178 4.0 11.0 0.00 0.00 0.00 68 1010.8
20260903074544 81 148 4.0 9.0 0.00 0.00 0.00 67 1010.7
20260903073033 81 129 6.0 11.0 0.00 0.00 0.00 66 1010.8
20260903071531 82 187 5.0 11.0 0.00 0.00 0.00 65 1010.8
20260903070032 82 155 6.0 13.0 0.00 0.00 0.00 64 1010.8
20260903064527 82 219 6.0 10.0 0.00 0.00 0.00 63 1010.8
20260903063029 83 236 5.0 11.0 0.00 0.00 0.00 62 1010.8
20260903061534 83 206 6.0 15.0 0.00 0.00 0.00 62 1010.8
20260903060036 83 155 7.0 11.0 0.00 0.00 0.00 61 1010.8
20260903054522 84 171 5.0 10.0 0.00 0.00 0.00 60 1010.8
20260903053028 84 156 6.0 11.0 0.00 0.00 0.00 59 1010.8
20260903051515 85 181 6.0 14.0 0.00 0.00 0.00 58 1010.8
20260903050013 85 247 7.0 13.0 0.00 0.00 0.00 57 1010.8
20260903044513 86 213 6.0 15.0 0.00 0.00 0.00 55 1010.8
20260903043027 87 155 8.0 20.0 0.00 0.00 0.00 53 1010.8
20260903041512 87 177 4.0 11.0 0.00 0.00 0.00 51 1010.7
20260903040012 87 173 5.0 0.0 0.00 0.00 0.00 50 1010.6
20260903034512 87 186 5.0 10.0 0.00 0.00 0.00 50 1010.7
20260903033010 87 165 6.0 11.0 0.00 0.00 0.00 50 1010.6
20260903031635 87 148 6.0 12.0 0.00 0.00 0.00 50 1010.5
20260903030009 87 221 6.0 9.0 0.00 0.00 0.00 49 1010.5
20260903024509 87 147 4.0 8.0 0.00 0.00 0.00 48 1010.4
20260903023010 88 139 3.0 7.0 0.00 0.00 0.00 47 1010.3
20260903021510 88 164 2.0 5.0 0.00 0.00 0.00 47 1010.2
20260903020006 89 162 3.0 5.0 0.00 0.00 0.00 46 1010.0
20260903014507 90 154 2.0 4.0 0.00 0.00 0.00 45 1010.0
20260903013005 90 165 2.0 5.0 0.00 0.00 0.00 44 1009.8
20260903011506 91 145 2.0 4.0 0.00 0.00 0.00 42 1009.5
20260903010006 93 140 3.0 6.0 0.00 0.00 0.00 40 1009.4
20260903004513 94 169 2.0 7.0 0.00 0.00 0.00 39 1009.3
20260903003010 95 164 3.0 11.0 0.00 0.00 0.00 37 1009.3
20260903001611 97 196 4.0 9.0 0.00 0.00 0.00 35 1009.2
20260903000006 97 162 5.0 10.0 0.00 0.00 0.00 34 1009.2
20260902234502 98 206 6.0 13.0 0.00 0.00 0.00 34 1009.2
20260902233003 98 155 6.0 13.0 0.00 0.00 0.00 34 1009.2
20260902231501 98 143 5.0 13.0 0.00 0.00 0.00 33 1009.2
20260902230100 99 146 5.0 13.0 0.00 0.00 0.00 34 1009.3
20260902224604 99 165 6.0 12.0 0.00 0.00 0.00 34 1009.3
20260902223059 99 144 7.0 13.0 0.00 0.00 0.00 33 1009.3
20260902221605 99 101 5.0 13.0 0.00 0.00 0.00 32 1009.4
20260902220101 99 133 6.0 12.0 0.00 0.00 0.00 34 1009.4
20260902214603 98 129 6.0 12.0 0.00 0.00 0.00 36 1009.5
20260902213053 99 148 6.0 15.0 0.00 0.00 0.00 35 1009.7
20260902211607 99 162 3.0 14.0 0.00 0.00 0.00 37 1009.7
20260902210112 99 152 2.0 11.0 0.00 0.00 0.00 36 1010.0
20260902204546 98 175 2.0 18.0 0.00 0.00 0.00 37 1010.3
20260902203044 98 122 6.0 16.0 0.00 0.00 0.00 37 1010.5
20260902201541 98 156 6.0 15.0 0.00 0.00 0.00 37 1010.6
20260902200039 98 158 2.0 15.0 0.00 0.00 0.00 40 1010.9
20260902194537 98 216 4.0 11.0 0.00 0.00 0.00 38 1011.1
20260902193034 98 120 4.0 7.0 0.00 0.00 0.00 38 1011.4
20260902191530 97 172 4.0 10.0 0.00 0.00 0.00 41 1011.6
20260902190036 97 96 4.0 10.0 0.00 0.00 0.00 39 1011.9
20260902184531 96 165 7.0 14.0 0.00 0.00 0.00 42 1012.1
20260902183023 96 150 3.0 14.0 0.00 0.00 0.00 44 1012.3
20260902181521 95 82 3.0 11.0 0.00 0.00 0.00 46 1012.7
20260902180021 95 157 5.0 13.0 0.00 0.00 0.00 45 1012.9
20260902174520 96 219 4.0 9.0 0.00 0.00 0.00 44 1013.1
20260902173016 94 158 3.0 10.0 0.00 0.00 0.00 46 1013.3
20260902171513 94 259 4.0 11.0 0.00 0.00 0.00 46 1013.5
20260902170009 94 141 2.0 10.0 0.00 0.00 0.00 46 1013.7
20260902164507 93 162 2.0 13.0 0.00 0.00 0.00 48 1013.8
20260902163000 93 173 3.0 12.0 0.00 0.00 0.00 48 1013.9
20260902161557 93 195 5.0 9.0 0.00 0.00 0.00 49 1014.0
20260902160055 92 200 2.0 10.0 0.00 0.00 0.00 50 1013.9
20260902154550 91 219 3.0 10.0 0.00 0.00 0.00 51 1013.9
20260902153046 90 182 4.0 11.0 0.00 0.00 0.00 53 1013.9
20260902151548 90 165 4.0 12.0 0.00 0.00 0.00 53 1014.1
20260902150040 89 231 6.0 12.0 0.00 0.00 0.00 55 1014.0
20260902144555 88 248 6.0 12.0 0.00 0.00 0.00 56 1014.1
20260902143036 87 184 5.0 11.0 0.00 0.00 0.00 58 1014.1
20260902141536 87 224 0.0 8.0 0.00 0.00 0.00 61 1014.1
20260902140029 85 243 2.0 9.0 0.00 0.00 0.00 62 1014.1
20260902134532 84 252 4.0 9.0 0.00 0.00 0.00 63 1014.1
20260902133025 82 221 2.0 9.0 0.00 0.00 0.00 66 1014.1
20260902131523 81 159 2.0 7.0 0.00 0.00 0.00 67 1014.2
20260902130030 80 184 1.0 5.0 0.00 0.00 0.00 69 1014.2
20260902124525 79 190 0.0 4.0 0.00 0.00 0.00 70 1014.0
20260902123019 77 168 2.0 5.0 0.00 0.00 0.00 72 1013.9
20260902121516 77 195 1.0 5.0 0.00 0.00 0.00 72 1013.6
20260902120015 77 160 1.0 5.0 0.00 0.00 0.00 72 1013.5
20260902114515 76 181 1.0 6.0 0.00 0.00 0.00 72 1013.4
20260902113011 76 201 2.0 5.0 0.00 0.00 0.00 71 1013.3
20260902111509 77 165 1.0 5.0 0.00 0.00 0.00 70 1013.2
20260902110008 77 154 1.0 5.0 0.00 0.00 0.00 69 1013.1
20260902104506 77 155 1.0 3.0 0.00 0.00 0.00 68 1013.2
20260902103004 78 160 1.0 5.0 0.00 0.00 0.00 68 1013.0
20260902101508 78 152 2.0 5.0 0.00 0.00 0.00 67 1012.9
20260902100110 78 158 2.0 5.0 0.00 0.00 0.00 66 1012.9
20260902094615 79 172 2.0 5.0 0.00 0.00 0.00 65 1012.7
20260902093055 79 159 2.0 5.0 0.00 0.00 0.00 64 1012.8
20260902091600 80 172 2.0 7.0 0.00 0.00 0.00 63 1012.7
20260902090052 80 149 2.0 6.0 0.00 0.00 0.00 62 1012.7